• In Czech Republic
  • List of Countries
  • For 7 days
  • Water Temperature
  • Satellite Maps
  • Weather Map
  • Weather Widgets
  • user-avatar
    Login

    Hourly Weather Aqtobe

    Today, 25 June, Monday

    Time Temperature Precipitation Wind Pressure Humidity
    00:00 +21°C° 0 mm 2 mps 741 mmHg 71%
    01:00 +20°C° 0 mm 2 mps 741 mmHg 73%
    02:00 +20°C° 0 mm 2 mps 741 mmHg 74%
    03:00 +19°C° 0 mm 2 mps 742 mmHg 74%
    04:00 +19°C° 0 mm 3 mps 742 mmHg 75%
    05:00 +20°C° 0 mm 3 mps 742 mmHg 69%
    06:00 +22°C° 0 mm 3 mps 742 mmHg 62%
    07:00 +24°C° 0 mm 3 mps 743 mmHg 56%
    08:00 +25°C° 0 mm 3 mps 743 mmHg 51%
    09:00 +27°C° 0 mm 2 mps 743 mmHg 47%
    10:00 +28°C° 0 mm 2 mps 743 mmHg 42%
    11:00 +29°C° 0 mm 2 mps 743 mmHg 39%
    12:00 +30°C° 0 mm 2 mps 743 mmHg 35%
    13:00 +31°C° 0 mm 2 mps 743 mmHg 32%
    14:00 +31°C° 0 mm 2 mps 743 mmHg 31%
    15:00 +31°C° 0 mm 2 mps 743 mmHg 30%
    16:00 +32°C° 0 mm 2 mps 743 mmHg 29%
    17:00 +31°C° 0 mm 2 mps 743 mmHg 32%
    18:00 +30°C° 0 mm 3 mps 743 mmHg 35%
    19:00 +30°C° 0 mm 3 mps 742 mmHg 39%
    20:00 +28°C° 0 mm 3 mps 742 mmHg 45%
    21:00 +26°C° 0 mm 3 mps 742 mmHg 51%
    22:00 +24°C° 0 mm 3 mps 742 mmHg 57%
    23:00 +22°C° 0 mm 3 mps 742 mmHg 60%

    Tomorrow, 26 June, Tuesday

    Time Temperature Precipitation Wind Pressure Humidity
    00:00 +21°C° 0 mm 2 mps 742 mmHg 64%
    01:00 +21°C° 0 mm 2 mps 742 mmHg 68%
    02:00 +20°C° 0 mm 2 mps 742 mmHg 69%
    03:00 +20°C° 0 mm 2 mps 742 mmHg 71%
    04:00 +20°C° 0 mm 2 mps 742 mmHg 73%
    05:00 +21°C° 0 mm 3 mps 742 mmHg 70%
    06:00 +22°C° 0 mm 3 mps 742 mmHg 66%
    07:00 +25°C° 0 mm 3 mps 742 mmHg 63%
    08:00 +26°C° 0 mm 4 mps 742 mmHg 56%
    09:00 +28°C° 0 mm 4 mps 742 mmHg 50%
    10:00 +30°C° 0 mm 5 mps 741 mmHg 44%
    11:00 +32°C° 0 mm 5 mps 741 mmHg 43%
    12:00 +32°C° 0 mm 6 mps 741 mmHg 41%
    13:00 +33°C° 0 mm 6 mps 741 mmHg 40%
    14:00 +33°C° 0 mm 6 mps 741 mmHg 41%
    15:00 +33°C° 0 mm 6 mps 740 mmHg 42%
    16:00 +33°C° 0 mm 6 mps 740 mmHg 42%
    17:00 +32°C° 0 mm 6 mps 740 mmHg 46%
    18:00 +30°C° 0 mm 6 mps 740 mmHg 50%
    19:00 +29°C° 0 mm 5 mps 740 mmHg 53%
    20:00 +27°C° 0 mm 5 mps 740 mmHg 58%
    21:00 +26°C° 0 mm 4 mps 741 mmHg 62%
    22:00 +24°C° 0 mm 3 mps 741 mmHg 67%
    23:00 +22°C° 0 mm 3 mps 741 mmHg 64%

    Day after tomorrow, 27 June, Wednesday

    Time Temperature Precipitation Wind Pressure Humidity
    00:00 +21°C° 0 mm 3 mps 740 mmHg 62%
    01:00 +20°C° 0 mm 3 mps 740 mmHg 60%
    02:00 +20°C° 0 mm 2 mps 740 mmHg 60%
    03:00 +19°C° 0 mm 2 mps 740 mmHg 60%
    04:00 +18°C° 0 mm 2 mps 740 mmHg 60%
    05:00 +20°C° 0 mm 2 mps 740 mmHg 56%
    06:00 +23°C° 0 mm 2 mps 740 mmHg 53%
    07:00 +24°C° 0 mm 2 mps 740 mmHg 49%
    08:00 +25°C° 0 mm 3 mps 740 mmHg 46%
    09:00 +27°C° 0 mm 4 mps 740 mmHg 43%
    10:00 +28°C° 0 mm 5 mps 739 mmHg 40%
    11:00 +29°C° 0 mm 5 mps 739 mmHg 38%
    12:00 +30°C° 0 mm 6 mps 739 mmHg 35%
    13:00 +32°C° 0 mm 7 mps 738 mmHg 32%
    14:00 +32°C° 0 mm 7 mps 738 mmHg 33%
    15:00 +32°C° 0 mm 7 mps 738 mmHg 34%
    16:00 +32°C° 0 mm 7 mps 738 mmHg 35%
    17:00 +30°C° 0 mm 6 mps 738 mmHg 39%
    18:00 +30°C° 0 mm 5 mps 738 mmHg 43%
    19:00 +29°C° 0 mm 4 mps 737 mmHg 47%
    20:00 +28°C° 0 mm 3 mps 738 mmHg 52%
    21:00 +26°C° 0 mm 3 mps 738 mmHg 56%
    22:00 +25°C° 0 mm 3 mps 738 mmHg 61%
    23:00 +24°C° 0 mm 3 mps 737 mmHg 64%

    28 June, Thursday

    Time Temperature Precipitation Wind Pressure Humidity
    00:00 +24°C° 0 mm 3 mps 737 mmHg 67%
    01:00 +22°C° 0 mm 3 mps 737 mmHg 70%
    02:00 +22°C° 0 mm 3 mps 737 mmHg 71%
    03:00 +21°C° 0 mm 3 mps 737 mmHg 72%
    04:00 +21°C° 0 mm 3 mps 737 mmHg 73%
    05:00 +22°C° 0 mm 4 mps 737 mmHg 69%
    06:00 +25°C° 0 mm 4 mps 738 mmHg 64%
    07:00 +26°C° 0 mm 5 mps 738 mmHg 60%
    08:00 +27°C° 0 mm 5 mps 738 mmHg 54%
    09:00 +29°C° 0 mm 5 mps 738 mmHg 48%
    10:00 +32°C° 0 mm 5 mps 738 mmHg 42%
    11:00 +32°C° 0 mm 6 mps 738 mmHg 39%
    12:00 +33°C° 0 mm 6 mps 737 mmHg 36%
    13:00 +34°C° 0 mm 6 mps 737 mmHg 33%
    14:00 +34°C° 0 mm 6 mps 737 mmHg 33%
    15:00 +34°C° 0 mm 6 mps 737 mmHg 34%
    16:00 +34°C° 0 mm 7 mps 737 mmHg 34%
    17:00 +33°C° 0 mm 6 mps 737 mmHg 40%
    18:00 +32°C° 0 mm 5 mps 737 mmHg 45%
    19:00 +30°C° 0 mm 5 mps 737 mmHg 50%
    20:00 +28°C° 0 mm 4 mps 737 mmHg 57%
    21:00 +27°C° 0 mm 4 mps 738 mmHg 64%
    22:00 +25°C° 0 mm 3 mps 738 mmHg 71%
    23:00 +24°C° 0 mm 3 mps 738 mmHg 75%

    29 June, Friday

    Time Temperature Precipitation Wind Pressure Humidity
    00:00 +24°C° 0 mm 3 mps 737 mmHg 79%
    01:00 +22°C° 0 mm 3 mps 737 mmHg 83%
    02:00 +22°C° 0 mm 3 mps 737 mmHg 86%
    03:00 +21°C° 0 mm 3 mps 737 mmHg 88%
    04:00 +20°C° 0 mm 3 mps 737 mmHg 91%
    05:00 +21°C° 0 mm 3 mps 738 mmHg 84%
    06:00 +23°C° 0 mm 4 mps 738 mmHg 77%
    07:00 +25°C° 0 mm 4 mps 738 mmHg 70%
    08:00 +26°C° 0 mm 4 mps 738 mmHg 62%
    09:00 +28°C° 0 mm 5 mps 738 mmHg 53%
    10:00 +30°C° 0 mm 5 mps 738 mmHg 44%
    11:00 +30°C° 0 mm 5 mps 738 mmHg 41%
    12:00 +32°C° 0 mm 5 mps 738 mmHg 38%
    13:00 +33°C° 0 mm 5 mps 738 mmHg 35%
    14:00 +33°C° 0 mm 5 mps 738 mmHg 36%
    15:00 +33°C° 0 mm 5 mps 738 mmHg 36%
    16:00 +33°C° 0 mm 6 mps 738 mmHg 36%
    17:00 +32°C° 0 mm 5 mps 739 mmHg 38%
    18:00 +30°C° 0 mm 5 mps 739 mmHg 40%
    19:00 +29°C° 0 mm 5 mps 739 mmHg 42%
    20:00 +28°C° 0 mm 4 mps 739 mmHg 46%
    21:00 +26°C° 0 mm 4 mps 740 mmHg 51%
    22:00 +25°C° 0 mm 4 mps 740 mmHg 55%
    23:00 +23°C° 0 mm 4 mps 740 mmHg 56%

    30 June, Saturday

    Time Temperature Precipitation Wind Pressure Humidity
    00:00 +22°C° 0 mm 4 mps 740 mmHg 58%
    01:00 +22°C° 0 mm 5 mps 741 mmHg 59%
    02:00 +21°C° 0 mm 5 mps 741 mmHg 60%
    03:00 +21°C° 0 mm 5 mps 741 mmHg 62%
    04:00 +20°C° 0 mm 5 mps 742 mmHg 63%
    05:00 +21°C° 0 mm 5 mps 742 mmHg 59%
    06:00 +21°C° 0 mm 6 mps 743 mmHg 55%
    07:00 +22°C° 0 mm 6 mps 743 mmHg 51%
    08:00 +23°C° 0 mm 6 mps 743 mmHg 47%
    09:00 +24°C° 0 mm 6 mps 743 mmHg 44%
    10:00 +27°C° 0 mm 6 mps 744 mmHg 40%
    11:00 +27°C° 0 mm 6 mps 744 mmHg 38%
    12:00 +28°C° 0 mm 6 mps 743 mmHg 36%
    13:00 +29°C° 0 mm 6 mps 743 mmHg 33%
    14:00 +29°C° 0 mm 6 mps 743 mmHg 32%
    15:00 +29°C° 0 mm 6 mps 743 mmHg 32%
    16:00 +29°C° 0 mm 6 mps 743 mmHg 31%
    17:00 +28°C° 0 mm 5 mps 743 mmHg 33%
    18:00 +27°C° 0 mm 5 mps 744 mmHg 36%
    19:00 +27°C° 0 mm 4 mps 744 mmHg 39%
    20:00 +25°C° 0 mm 4 mps 744 mmHg 42%
    21:00 +23°C° 0 mm 4 mps 744 mmHg 45%
    22:00 +21°C° 0 mm 4 mps 744 mmHg 48%
    23:00 +20°C° 0 mm 4 mps 744 mmHg 49%
    Show more